Regional Weather Roundup
Issued by NWS

Home | Current Version | Previous Version | Graphics & Text | Print | Product List | Glossary On
Versions: 1 2 3 4 5 6 7 8 9 10 11 12 13 14 15 16 17 18 19 20 21 22 23 24 25 26 27 28 29 30 31 32 33 34 35 36 37 38 39 40 41 42 43 44 45 46 47 48 49 50
000
ASUS43 KFSD 021010
RWRSD

WEATHER ROUNDUP FOR SOUTH DAKOTA
NATIONAL WEATHER SERVICE SIOUX FALLS SD
400 AM CST FRI DEC 02 2016

NOTE: "FAIR" INDICATES FEW OR NO CLOUDS BELOW 12,000 FEET WITH NO
SIGNIFICANT WEATHER AND/OR OBSTRUCTIONS TO VISIBILITY.


SDZ001>005-009-010-012>017-021100-
NORTHWEST AND NORTH CENTRAL SOUTH DAKOTA

CITY           SKY/WX    TMP DP  RH WIND       PRES   REMARKS
BUFFALO          N/A     24  22  91 NE5       30.02R WCI  18
FAITH            N/A     25  25 100 CALM      30.11S
MOBRIDGE       CLOUDY    28  23  81 SE3       30.13R
$$

SDZ012>016-024>037-041>051-057-063-072>074-021100-
SOUTHWEST AND SOUTH CENTRAL SOUTH DAKOTA

CITY           SKY/WX    TMP DP  RH WIND       PRES   REMARKS
RAPID CTY ARPT PTCLDY    19  15  84 CALM      30.09R
PIERRE         CLOUDY    29  26  89 N6        30.14S WCI  23
CUSTER         CLOUDY    20  16  84 CALM      30.02R
ELLSWORTH AFB  MOCLDY    24  19  80 CALM      30.07S
PHILIP         CLOUDY    20  20 100 CALM      30.15R
PINE RIDGE     CLEAR     13  12  96 NE6       30.10R WCI   4
SPEARFISH      CLOUDY    30  23  74 W7        30.07S WCI  23
WINNER         CLOUDY    28  25  88 W5        30.15S WCI  23
$$

SDZ004>011-016>023-039-040-021100-
NORTHEAST SOUTH DAKOTA

CITY           SKY/WX    TMP DP  RH WIND       PRES   REMARKS
ABERDEEN       CLOUDY    28  22  78 NW7       30.17R WCI  21
WATERTOWN      CLOUDY    26  22  84 NW5       30.12R WCI  20
BROOKINGS      CLOUDY    27  25  93 N8        30.13R WCI  18
SISSETON         N/A     28  21  75 N10       30.15R WCI  19
$$

SDZ017-020-022-023-036>040-048>070-021100-
SOUTHEAST SOUTH DAKOTA

CITY           SKY/WX    TMP DP  RH WIND       PRES   REMARKS
SIOUX FALLS    CLOUDY    33  32  96 N6        30.14R WCI  28
HURON          CLOUDY    29  28  96 N5        30.16S WCI  24
CHAMBERLAIN    CLOUDY    31  31  99 CALM      30.16S
MITCHELL       CLOUDY    32  32 100 NW6       30.17R WCI  26
YANKTON        MOCLDY    32  28  86 W7        30.16R WCI  26
$$

ABBREVIATIONS USED IN REMARKS
   TC - TEMPERATURE IN CELSIUS
  WCI - WIND CHILL INDEX
   HX - HEAT INDEX
  VSB - VISIBILITY





USA.gov is the U.S. government's official web portal to all federal, state and local government web resources and services.